TimeEDT,TemperatureF,Dew PointF,Humidity,Sea Level PressureIn,VisibilityMPH,Wind Direction,Wind SpeedMPH,Gust SpeedMPH,PrecipitationIn,Events,Conditions,WindDirDegrees,DateUTC
12:53 AM,41.0,41.0,100,-9999,0.0,ESE,18.4,-,N/A,Fog,Fog,110,2013-10-12 04:53:00
1:53 AM,41.0,37.4,87,-9999,90.0,ESE,18.4,-,N/A,,Partly Cloudy,120,2013-10-12 05:53:00
2:54 AM,39.9,38.5,95,-9999,90.0,ESE,18.4,-,N/A,,Clear,120,2013-10-12 06:54:00
3:53 AM,39.2,39.2,100,-9999,0.1,ESE,11.5,-,N/A,Fog,Fog,120,2013-10-12 07:53:00
4:55 AM,39.2,35.6,87,-9999,100.0,ESE,15.0,-,N/A,,Clear,120,2013-10-12 08:55:00
5:51 AM,39.2,37.4,93,-9999,100.0,SE,15.0,-,N/A,,Clear,130,2013-10-12 09:51:00
6:58 AM,41.0,37.4,87,-9999,100.0,SE,12.7,-,N/A,,Partly Cloudy,130,2013-10-12 10:58:00
7:53 AM,41.0,39.2,93,-9999,100.0,SE,8.1,-,N/A,,Partly Cloudy,130,2013-10-12 11:53:00
9:54 AM,44.6,41.0,87,-9999,100.0,SE,5.8,-,N/A,,Partly Cloudy,130,2013-10-12 13:54:00
10:58 AM,44.6,41.0,87,-9999,100.0,SE,8.1,-,N/A,,Partly Cloudy,130,2013-10-12 14:58:00
11:55 AM,44.6,41.0,87,-9999,20.0,ESE,4.6,-,N/A,,Partly Cloudy,110,2013-10-12 15:55:00
12:58 PM,46.4,41.0,81,-9999,2.0,South,1.2,-,N/A,,Partly Cloudy,180,2013-10-12 16:58:00
1:55 PM,46.4,39.2,76,-9999,2.0,SW,5.8,-,N/A,,Partly Cloudy,220,2013-10-12 17:55:00
2:51 PM,44.6,41.0,87,-9999,70.0,ENE,1.2,-,N/A,,Partly Cloudy,60,2013-10-12 18:51:00
3:59 PM,44.6,41.0,87,-9999,70.0,NW,5.8,-,N/A,,Scattered Clouds,320,2013-10-12 19:59:00
4:55 PM,44.6,41.0,87,-9999,70.0,WNW,3.5,-,N/A,,Partly Cloudy,300,2013-10-12 20:55:00
5:52 PM,44.6,39.2,81,-9999,70.0,NW,5.8,-,N/A,,Partly Cloudy,310,2013-10-12 21:52:00
6:52 PM,42.8,37.4,81,-9999,70.0,NE,3.5,-,N/A,,Partly Cloudy,40,2013-10-12 22:52:00
7:54 PM,41.0,39.2,93,-9999,60.0,NE,4.6,-,N/A,,Clear,40,2013-10-12 23:54:00
8:55 PM,41.0,37.4,87,-9999,60.0,East,4.6,-,N/A,,Clear,90,2013-10-13 00:55:00
9:55 PM,41.0,37.4,87,-9999,60.0,SE,3.5,-,N/A,,Clear,130,2013-10-13 01:55:00
10:59 PM,41.0,37.4,87,-9999,60.0,ESE,4.6,-,N/A,,Clear,120,2013-10-13 02:59:00
11:53 PM,41.0,35.6,81,-9999,60.0,SE,2.3,-,N/A,,Clear,140,2013-10-13 03:53:00